(63) Ausonia
(63) Ausonia
Epoch 2008 Nov. 30.0 TT = JDT 2454800.5 Goffin
M 209.29393 (2000.0) P Q
n 0.26575411 Peri. 295.81893 +0.06652534 +0.99706347
a 2.3959774 Node 337.89643 -0.87556007 +0.04010275
e 0.1257101 Incl. 5.78563 -0.47850699 +0.06523965
P 3.71 H 7.55 G 0.25 U 0
From 940 observations at 76 oppositions, 1861-1998, mean residual 0".53.
An explanation of the orbital
elements is available.These orbital elements are also available in forms suitable for loading into a number of popular planetarium-type software programs.
Personalized ephemerides for this object (and others) can be generated using the MPES.
Date TT R. A. (2000) Decl. Delta r Elong. Phase V 2009 01 01 09 21.59 +20 30.4 1.788 2.646 143.9 12.6 11.6 2009 01 06 09 18.38 +20 42.9 1.747 2.643 149.7 10.8 11.5 2009 01 11 09 14.51 +20 56.8 1.712 2.639 155.6 8.8 11.3 2009 01 16 09 10.04 +21 11.6 1.683 2.635 161.7 6.7 11.2 2009 01 21 09 05.09 +21 26.6 1.662 2.631 167.7 4.6 11.1 2009 01 26 08 59.77 +21 41.2 1.647 2.627 173.2 2.5 11.0 2009 01 31 08 54.25 +21 54.5 1.640 2.623 175.5 1.7 10.9 2009 02 05 08 48.69 +22 05.9 1.640 2.619 171.3 3.2 11.0 2009 02 10 08 43.26 +22 15.1 1.647 2.615 165.5 5.4 11.1 2009 02 15 08 38.13 +22 21.6 1.662 2.610 159.5 7.6 11.2 2009 02 20 08 33.43 +22 25.3 1.683 2.606 153.5 9.7 11.3 2009 02 25 08 29.28 +22 26.1 1.710 2.601 147.6 11.8 11.4 2009 03 02 08 25.80 +22 24.0 1.744 2.596 141.9 13.6 11.5 2009 03 07 08 23.05 +22 19.2 1.782 2.591 136.3 15.3 11.6 2009 03 12 08 21.06 +22 11.9 1.825 2.586 130.9 16.9 11.7 2009 03 17 08 19.84 +22 02.3 1.871 2.581 125.7 18.2 11.8 2009 03 22 08 19.40 +21 50.5 1.921 2.576 120.7 19.4 11.9